Regional Weather Roundup
Issued by NWS

Home | Current Version | Previous Version | Text Only | Print | Product List | Glossary On
Versions: 1 2 3 4 5 6 7 8 9 10 11 12 13 14 15 16 17 18 19 20 21 22 23 24 25 26 27 28 29 30 31 32 33 34 35 36 37 38 39 40 41 42 43 44 45 46 47 48 49 50
000
ASUS43 KDTX 240610
RWRMI
MICHIGAN HOURLY REGIONAL WEATHER ROUNDUP
NATIONAL WEATHER SERVICE DETROIT/PONTIAC MI
ISSUED BY NATIONAL WEATHER SERVICE GRAND RAPIDS MI
200 AM EDT WED MAY 24 2017

NOTE: "FAIR" INDICATES FEW OR NO CLOUDS BELOW 12,000 FEET WITH NO
SIGNIFICANT WEATHER AND/OR OBSTRUCTION TO VISIBILITY.

MIZ047>049-052>055-059>063-066>070-074>076-081>083-240700-
SOUTHEAST LOWER MICHIGAN

CITY           SKY/WX    TMP DP  RH WIND       PRES   REMARKS
ADRIAN         CLOUDY    57  54  89 NE8       29.66F
6HR MIN TEMP:  57; 6HR MAX TEMP:  63;

ALMA           CLOUDY    55  55  98 CALM      29.70F
ANN ARBOR      PTCLDY    57  54  89 N6        29.67F
BAD AXE        CLOUDY    54  52  95 CALM      29.72F
6HR MIN TEMP:  54; 6HR MAX TEMP:  60;

DETROIT CITY   PTCLDY    60  52  74 NE8       29.68F
6HR MIN TEMP:  60; 6HR MAX TEMP:  68;

DETROIT        CLOUDY    61  53  75 NE10      29.67F
6HR MIN TEMP:  61; 6HR MAX TEMP:  67;

FLINT          CLOUDY    56  53  90 E9        29.69F
6HR MIN TEMP:  56; 6HR MAX TEMP:  62; 6HR PCP: TRACE;

GROSSE ILE     MOCLDY    61  52  72 NE7       29.65F
6HR MIN TEMP:  60; 6HR MAX TEMP:  68;

HILLSDALE      MOCLDY    54  52  94 NE5       29.66F
HOWELL         PTCLDY    55  52  88 NE6       29.68F
6HR MIN TEMP:  55; 6HR MAX TEMP:  59;


CITY           SKY/WX    TMP DP  RH WIND       PRES   REMARKS
JACKSON        CLOUDY    55  52  89 E6        29.67F
6HR MIN TEMP:  55; 6HR MAX TEMP:  60;

LANSING        CLOUDY    57  52  83 NE5       29.70S
6HR MIN TEMP:  56; 6HR MAX TEMP:  61; 6HR PCP: TRACE;

MASON          PTCLDY    56  52  86 NE5       29.68F
MONROE         MOCLDY    60  51  72 N5        29.64F
6HR MIN TEMP:  58; 6HR MAX TEMP:  67;

MT. CLEMENS    CLOUDY    59  55  86 NE10      29.68F
6HR MIN TEMP:  59; 6HR MAX TEMP:  66;

PONTIAC        CLOUDY    57  53  86 NE8       29.68F
6HR MIN TEMP:  57; 6HR MAX TEMP:  61; 6HR PCP: TRACE;

PORT HOPE        N/A     52  51  97 E3        29.71F
6HR MIN TEMP:  52; 6HR MAX TEMP:  59; 6HR PCP:  0.05;

PORT HURON     CLOUDY    55  50  82 NE6       29.71S
TRI CITIES     CLOUDY    57  56  96 E3        29.71F
6HR MIN TEMP:  57; 6HR MAX TEMP:  61; 6HR PCP:  0.01;

YPSILANTI      CLOUDY    60  54  80 NE8       29.67F
6HR MIN TEMP:  59; 6HR MAX TEMP:  65;

$$
MIZ043>046-050>051-056>058-064>065-071>073-077>080-240700-
SOUTHWEST LOWER MICHIGAN

CITY           SKY/WX    TMP DP  RH WIND       PRES   REMARKS
BATTLE CREEK   PTCLDY    57  55  93 NE8       29.67F
6HR MIN TEMP:  57; 6HR MAX TEMP:  60;

BENTON HARBOR  LGT RAIN  58  54  86 NE7       29.65F
6HR MIN TEMP:  56; 6HR MAX TEMP:  61; 6HR PCP: TRACE;

BIG RAPIDS     CLOUDY    54  52  93 CALM      29.70F
6HR MIN TEMP:  53; 6HR MAX TEMP:  60;

COLDWATER      PTCLDY    56  55  94 NE6       29.66F
6HR MIN TEMP:  56; 6HR MAX TEMP:  60;

HOLLAND        CLOUDY    58  55  90 E6        29.68F
6HR MIN TEMP:  57; 6HR MAX TEMP:  60;

GRAND RAPIDS   CLOUDY    57  55  93 CALM      29.68F
6HR MIN TEMP:  56; 6HR MAX TEMP:  60;

KALAMAZOO      CLOUDY    58  53  84 NE3       29.66F
6HR MIN TEMP:  58; 6HR MAX TEMP:  61;

MARSHALL       PTCLDY    56  55  99 CALM      29.66F
6HR MIN TEMP:  56; 6HR MAX TEMP:  59;

MOUNT PLEASANT CLOUDY    54  53  96 CALM      29.71F
6HR MIN TEMP:  54; 6HR MAX TEMP:  59;

MUSKEGON       CLOUDY    57  54  89 NE5       29.68F
6HR MIN TEMP:  56; 6HR MAX TEMP:  61; 6HR PCP:  0.04;

STURGIS        CLOUDY    57  54  89 E8        29.64F
6HR MIN TEMP:  57; 6HR MAX TEMP:  60;

$$
MIZ016>042-240700-
NORTHERN LOWER MICHIGAN

CITY           SKY/WX    TMP DP  RH WIND       PRES   REMARKS
ALPENA         FOG       50  50 100 E5        29.74F VSB 3/4
6HR MIN TEMP:  50; 6HR MAX TEMP:  54; 6HR PCP:  0.02;

BEAVER ISLAND  LGT RAIN  50  45  83 CALM      29.75F
6HR MIN TEMP:  50; 6HR MAX TEMP:  58;

BELLAIRE       LGT RAIN  52  50  93 CALM      29.74F
6HR MIN TEMP:  52; 6HR MAX TEMP:  63;

CADILLAC       LGT RAIN  53  52  97 NE3       29.71F
CHARLEVOIX     LGT RAIN  51  49  95 NE7       29.77F
6HR MIN TEMP:  50; 6HR MAX TEMP:  59;

GAYLORD        LGT RAIN  53  50  89 CALM      29.73F FOG
6HR MIN TEMP:  53; 6HR MAX TEMP:  59; 6HR PCP:  0.03;

HOUGHTON LAKE  CLOUDY    53  51  93 E3        29.73S
6HR MIN TEMP:  52; 6HR MAX TEMP:  54; 6HR PCP:  0.16;

MANISTEE       LGT RAIN  53  52  96 CALM      29.70F
OSCODA         CLOUDY    49  49  97 W6        29.72F FOG
6HR MIN TEMP:  49; 6HR MAX TEMP:  54;

PELLSTON       LGT RAIN  50  46  86 NE5       29.75F
6HR MIN TEMP:  50; 6HR MAX TEMP:  60; 6HR PCP:  0.02;

TRAVERSE CITY  LGT RAIN  50  49  96 CALM      29.71F
6HR MIN TEMP:  49; 6HR MAX TEMP:  53; 6HR PCP:  0.13;

LUDINGTON      LGT RAIN  53  53 100 E3        29.69F
6HR MIN TEMP:  51; 6HR MAX TEMP:  53; 6HR PCP:  0.08;

$$
MIZ007>008-015-240700-
EASTERN UPPER MICHIGAN

CITY           SKY/WX    TMP DP  RH WIND       PRES   REMARKS
KINROSS        CLOUDY    47  43  86 N3        29.77F
6HR MIN TEMP:  45; 6HR MAX TEMP:  54;

MACKINAC ISLAN CLOUDY    48  44  87 N5        29.75F
6HR MIN TEMP:  48; 6HR MAX TEMP:  58;

NEWBERRY       LGT RAIN  45  44  97 N3        29.76F
6HR MIN TEMP:  44; 6HR MAX TEMP:  55;

S. S. MARIE    CLOUDY    55  46  71 NE6       29.76F
6HR MIN TEMP:  47; 6HR MAX TEMP:  57;

$$
MIZ004>006-011>014-085-240700-
CENTRAL UPPER MICHIGAN

CITY           SKY/WX    TMP DP  RH WIND       PRES   REMARKS
MANISTIQUE     CLOUDY    46  44  90 N7        29.76F
6HR MIN TEMP:  46; 6HR MAX TEMP:  58;

ESCANABA       RAIN      46  45  96 N8        29.77F
6HR MIN TEMP:  46; 6HR MAX TEMP:  53; 6HR PCP:  0.07;

MENOMINEE      LGT RAIN  48  46  93 NE10      29.75F
6HR MIN TEMP:  48; 6HR MAX TEMP:  53; 6HR PCP:  0.18;

SAWYER-GWINN   CLOUDY    42  41  97 N6        29.80F
6HR MIN TEMP:  42; 6HR MAX TEMP:  46;

$$
MIZ001>003-009>011-084-240700-
WESTERN UPPER MICHIGAN

CITY           SKY/WX    TMP DP  RH WIND       PRES   REMARKS
IRON MOUNTAIN  CLOUDY    48  42  80 N6        29.78F
6HR MIN TEMP:  48; 6HR MAX TEMP:  58;

HOUGHTON       CLOUDY    48  42  80 E6        29.82F
6HR MIN TEMP:  48; 6HR MAX TEMP:  50;

COPPER HARBOR    N/A     44  40  85 CALM      29.84F
6HR MIN TEMP:  43; 6HR MAX TEMP:  46;

IRONWOOD       CLOUDY    42  41  96 N3        29.84F
6HR MIN TEMP:  42; 6HR MAX TEMP:  50;

$$

ABBREVIATIONS USED IN REMARKS
   TC - TEMPERATURE IN CELSIUS
  WCI - WIND CHILL INDEX
   HX - HEAT INDEX
  VSB - VISIBILITY





USA.gov is the U.S. government's official web portal to all federal, state and local government web resources and services.